Simultaneous Nadir Overpasses (SNOs) Predictions

Prediction of SNOs between TERRA and METOP-C Satellite Orbit:

Table of predicted SNOs for the next 14.0 days since TLE Epoch: 12/31/2021
Index Date (TERRA) Time (TERRA) Lat,Lon (TERRA) SZA (TERRA ) Date (METOP-C) Time (METOP-C) Lat,Lon (METOP-C) SZA (METOP-C ) Distance(km) Time Diff (sec)
1 12/31/2021 18:12:46 -81.22, 130.09 73.60 12/31/2021 18:11:57 -81.21, 130.28 73.60 3.09 49
2 12/31/2021 19:02:12 81.22, -62.16 106.42 12/31/2021 19:02:38 81.22, -62.08 106.44 1.38 26
3 01/03/2022 13:46:57 -81.20,-163.66 73.91 01/03/2022 13:46:21 -81.21,-163.59 73.91 1.29 36
4 01/03/2022 14:36:22 81.23, 4.43 106.16 01/03/2022 14:37:01 81.22, 4.40 106.17 0.89 39
5 01/06/2022 09:21:07 -81.21, -97.11 74.24 01/06/2022 09:20:44 -81.21, -97.09 74.24 0.21 23
6 01/06/2022 10:10:33 81.21, 70.58 105.77 01/06/2022 10:11:25 81.22, 70.45 105.78 2.12 52
7 01/09/2022 04:55:17 -81.21, -30.62 74.63 01/09/2022 04:55:07 -81.21, -30.63 74.63 0.15 10
8 01/09/2022 05:44:43 81.21, 137.03 105.37 01/09/2022 05:45:48 81.22, 136.86 105.38 2.88 65
9 01/11/2022 23:40:00 81.19,-132.21 104.87 01/11/2022 23:38:50 81.20,-132.04 104.87 3.15 70



Historial Predications of SNOs between TERRA and METOP-C
